Date,TemperatureHighF,TemperatureAvgF,TemperatureLowF,DewpointHighF,DewpointAvgF,DewpointLowF,HumidityHigh,HumidityAvg,HumidityLow,PressureMaxIn,PressureMinIn,WindSpeedMaxMPH,WindSpeedAvgMPH,GustSpeedMaxMPH,PrecipitationSumIn
2013-1-1,42.0,38.2,36.0,39.0,37.7,36.0,99,97,82,30.53,30.40,7,4,0,0.00
2013-1-2,43.0,37.5,35.0,38.0,36.2,35.0,99,95,79,30.41,30.23,8,3,0,0.00
2013-1-3,39.0,35.9,33.0,39.0,35.4,32.0,100,98,93,30.23,30.11,7,4,0,0.00
2013-1-4,41.0,38.6,36.0,41.0,38.6,36.0,100,100,99,30.31,30.15,8,4,0,0.00
2013-1-5,45.0,42.4,41.0,44.0,41.8,40.0,100,97,82,30.19,30.08,13,4,0,0.00
2013-1-6,44.0,43.0,42.0,43.0,41.7,39.0,100,95,84,30.13,29.94,7,3,0,0.00
2013-1-7,52.0,45.6,43.0,48.0,43.6,41.0,100,93,76,30.11,29.77,23,8,0,0.00
2013-1-8,51.0,42.2,39.0,50.0,41.7,39.0,100,98,90,30.14,29.62,10,4,0,0.00
2013-1-9,47.0,43.8,37.0,45.0,38.9,35.0,95,83,72,29.92,29.65,24,11,0,0.00
2013-1-10,43.0,38.5,36.0,37.0,34.5,33.0,99,86,68,30.16,29.93,13,6,0,0.00
2013-1-11,40.0,36.3,33.0,34.0,30.9,27.0,95,81,62,30.34,30.16,7,3,0,0.00
2013-1-12,38.0,32.9,31.0,32.0,29.7,28.0,98,88,73,30.46,30.34,7,5,0,0.00
2013-1-13,38.0,34.1,32.0,35.0,32.0,30.0,97,92,84,30.49,30.45,7,3,0,0.00
2013-1-14,38.0,36.3,35.0,38.0,35.7,34.0,100,97,91,30.58,30.47,6,3,0,0.00
2013-1-15,42.0,38.6,36.0,41.0,38.2,36.0,100,98,93,30.72,30.60,6,3,0,0.00
2013-1-16,40.0,38.3,37.0,38.0,34.7,32.0,97,87,80,30.71,30.56,8,5,0,0.00
2013-1-17,44.0,37.4,34.0,37.0,34.7,33.0,99,89,74,30.56,30.31,10,5,0,0.00
2013-1-18,41.0,38.0,35.0,36.0,35.8,35.0,99,91,83,30.36,30.29,9,6,0,0.00
2013-1-19,41.0,38.5,37.0,37.0,35.9,35.0,96,90,85,30.41,30.36,9,5,0,0.00
2013-1-20,44.0,36.6,33.0,40.0,35.5,33.0,99,96,82,30.42,30.31,5,2,0,0.00
2013-1-21,35.0,33.0,32.0,35.0,32.8,31.0,99,99,98,30.30,30.16,6,2,0,0.00
2013-1-22,38.0,34.6,31.0,37.0,34.3,31.0,99,99,98,30.16,29.94,6,3,0,0.00
2013-1-23,43.0,39.2,37.0,42.0,38.9,37.0,99,98,88,30.06,29.83,7,2,0,0.00
2013-1-24,43.0,38.7,33.0,41.0,37.8,33.0,99,96,88,30.18,30.00,7,3,0,0.00
2013-1-25,48.0,41.0,38.0,44.0,40.1,38.0,99,97,82,30.05,29.90,7,2,0,0.00
2013-1-26,45.0,40.8,38.0,42.0,40.3,38.0,99,97,86,30.02,29.84,7,2,0,0.00
2013-1-27,44.0,39.4,35.0,41.0,38.3,35.0,99,95,84,30.02,29.95,6,2,0,0.00
2013-1-28,44.0,41.0,37.0,39.0,38.1,36.0,99,90,79,30.04,29.97,10,5,0,0.00
2013-1-29,46.0,43.0,40.0,43.0,40.9,39.0,99,92,81,30.29,30.05,9,2,0,0.00
2013-1-30,45.0,43.4,42.0,45.0,43.1,42.0,100,99,99,30.38,30.29,7,3,0,0.00
2013-1-31,51.0,46.6,42.0,48.0,45.7,42.0,99,96,85,30.36,30.27,10,4,0,0.00
2013-2-1,47.0,43.3,42.0,44.0,42.4,41.0,99,96,86,30.44,30.35,8,4,0,0.00
2013-2-2,45.0,41.1,39.0,43.0,40.7,39.0,99,98,93,30.43,30.25,6,2,0,0.00
2013-2-3,45.0,42.8,41.0,45.0,42.6,41.0,99,99,97,30.29,30.19,7,2,0,0.00
2013-2-4,47.0,45.4,43.0,45.0,43.2,42.0,99,92,83,30.17,29.86,6,3,0,0.00
2013-2-5,48.0,45.0,43.0,45.0,43.2,39.0,99,92,78,29.85,29.76,9,4,0,0.00
2013-2-6,48.0,44.7,43.0,44.0,42.0,40.0,97,89,72,29.98,29.73,10,5,0,0.00
2013-2-7,47.0,44.0,39.0,42.0,37.8,34.0,93,78,63,30.21,29.69,10,4,0,0.00
2013-2-8,45.0,40.1,36.0,41.0,37.2,35.0,99,90,73,30.31,30.22,7,4,0,0.00
2013-2-9,44.0,41.0,38.0,43.0,40.2,38.0,99,96,89,30.36,30.27,7,4,0,0.00
2013-2-10,45.0,43.2,42.0,43.0,41.4,39.0,99,93,79,30.39,30.34,7,2,0,0.00
2013-2-11,45.0,43.0,40.0,45.0,41.7,40.0,99,96,89,30.35,30.31,6,2,0,0.00
2013-2-12,51.0,45.9,42.0,46.0,43.5,41.0,100,91,74,30.37,30.22,16,3,0,0.00
2013-2-13,49.0,46.8,44.0,40.0,38.2,37.0,81,72,62,30.48,30.27,21,10,0,0.00
2013-2-14,45.0,44.0,42.0,45.0,43.0,38.0,99,96,74,30.58,30.48,5,1,0,0.00
2013-2-15,47.0,45.0,44.0,46.0,44.7,44.0,100,98,92,30.59,30.21,8,4,0,0.00
2013-2-16,49.0,45.4,40.0,43.0,39.8,37.0,100,82,63,30.19,30.09,26,10,0,0.00
2013-2-17,44.0,42.0,40.0,42.0,40.0,38.0,99,92,79,30.23,30.14,11,4,0,0.00
2013-2-18,44.0,41.8,39.0,42.0,39.5,38.0,99,92,78,30.11,29.76,9,4,0,0.00
2013-2-19,49.0,43.9,41.0,40.0,38.6,36.0,95,82,61,30.00,29.75,10,5,0,0.00
2013-2-20,44.0,39.6,36.0,42.0,38.8,36.0,99,97,92,30.02,29.98,9,4,0,0.00
2013-2-21,47.0,43.9,40.0,40.0,38.2,36.0,99,80,69,30.02,29.96,15,4,0,0.00
2013-2-22,49.0,43.6,41.0,44.0,38.1,34.0,99,82,62,30.00,29.59,37,11,0,0.00
2013-2-23,48.0,44.1,41.0,39.0,35.8,33.0,85,73,60,30.33,29.83,20,7,0,0.00
2013-2-24,45.0,43.3,41.0,44.0,39.5,33.0,99,86,65,30.34,29.85,8,4,0,0.00
2013-2-25,49.0,45.0,42.0,43.0,36.4,32.0,99,72,53,30.26,29.76,30,14,0,0.00
2013-2-26,45.0,41.6,37.0,41.0,37.6,35.0,97,85,77,30.31,30.12,13,3,0,0.00
2013-2-27,46.0,41.8,37.0,41.0,39.2,36.0,99,91,75,30.31,30.16,6,2,0,0.00
2013-2-28,45.0,42.4,40.0,45.0,42.3,40.0,100,99,98,30.29,30.19,7,3,0,0.00
2013-3-1,54.0,50.1,46.0,52.0,49.4,46.0,100,97,85,30.24,30.21,10,6,0,0.00
2013-3-2,51.0,47.5,42.0,51.0,44.3,36.0,100,89,70,30.23,30.04,26,11,0,0.00
2013-3-3,51.0,43.0,38.0,38.0,34.6,31.0,93,73,52,30.32,30.18,8,4,0,0.00
2013-3-4,48.0,41.6,37.0,39.0,36.9,34.0,99,84,60,30.32,29.99,8,4,0,0.00
2013-3-5,47.0,44.3,41.0,41.0,36.7,32.0,99,75,58,29.98,29.80,15,7,0,0.00
2013-3-6,44.0,42.5,41.0,44.0,42.0,41.0,99,97,93,29.85,29.64,11,4,0,0.00
2013-3-7,47.0,43.3,40.0,45.0,42.6,40.0,100,97,85,30.13,29.87,6,2,0,0.00
2013-3-8,51.0,43.0,38.0,43.0,40.1,38.0,99,90,62,30.24,30.11,8,5,0,0.00
2013-3-9,51.0,44.1,38.0,44.0,40.5,38.0,99,87,71,30.50,30.27,11,6,0,0.00
2013-3-10,46.0,44.0,41.0,43.0,41.5,40.0,99,90,80,30.49,30.42,7,3,0,0.00
2013-3-11,48.0,42.3,38.0,45.0,40.8,38.0,99,95,79,30.45,30.16,7,3,0,0.00
2013-3-12,55.0,49.1,42.0,51.0,47.2,42.0,100,94,79,30.14,29.96,8,4,0,0.00
2013-3-13,53.0,49.7,48.0,52.0,49.5,48.0,100,99,98,30.15,30.03,10,5,0,0.00
2013-3-14,56.0,49.0,46.0,55.0,48.8,46.0,100,99,96,30.09,30.00,10,3,0,0.00
2013-3-15,54.0,49.3,47.0,51.0,48.5,47.0,100,97,79,30.19,30.12,10,4,0,0.00
2013-3-16,50.0,46.6,43.0,46.0,39.6,33.0,100,76,56,30.11,29.86,32,12,0,0.00
2013-3-17,51.0,43.6,40.0,35.0,32.2,29.0,80,64,47,30.15,29.93,25,13,0,0.00
2013-3-18,49.0,43.8,39.0,39.0,34.8,30.0,95,71,47,30.24,30.04,15,6,0,0.00
2013-3-19,46.0,41.9,37.0,44.0,36.3,32.0,96,81,61,30.24,29.59,9,5,0,0.00
2013-3-20,50.0,46.0,42.0,47.0,40.3,30.0,99,81,60,29.91,29.29,34,14,0,0.00
2013-3-21,46.0,41.9,39.0,37.0,32.2,30.0,88,68,53,30.19,29.94,21,11,0,0.00
2013-3-22,46.0,40.0,35.0,35.0,31.4,25.0,95,73,45,30.38,30.21,9,4,0,0.00
2013-3-23,54.0,41.4,37.0,40.0,36.0,34.0,89,81,59,30.40,30.29,18,8,0,0.00
2013-3-24,58.0,48.2,43.0,45.0,42.0,39.0,98,79,58,30.27,30.01,43,32,0,0.00
2013-3-25,46.0,42.8,41.0,45.0,42.5,41.0,100,99,96,30.02,29.98,14,7,0,0.00
2013-3-26,48.0,43.0,40.0,45.0,42.6,40.0,100,98,90,30.08,29.99,10,5,0,0.00
2013-3-27,49.0,42.2,38.0,42.0,39.6,37.0,99,91,63,30.10,30.05,17,10,0,0.00
2013-3-28,47.0,44.0,40.0,43.0,40.9,39.0,98,89,75,30.17,30.06,15,7,0,0.00
2013-3-29,45.0,42.3,40.0,40.0,37.5,35.0,91,82,77,30.37,30.18,17,7,0,0.00
2013-3-30,49.0,43.4,40.0,44.0,39.6,-99.9,99,90,76,30.42,30.36,14,7,0,0.00
2013-3-31,47.0,44.1,41.0,46.0,43.4,41.0,99,97,86,30.34,30.03,17,9,0,0.00
2013-4-1,46.0,44.5,43.0,46.0,44.3,43.0,99,98,95,30.11,29.98,15,8,0,0.00
2013-4-2,48.0,43.5,40.0,40.0,35.2,31.0,85,73,59,30.28,30.12,18,10,0,0.00
2013-4-3,49.0,43.4,37.0,38.0,36.2,32.0,97,77,50,30.26,30.02,8,2,0,0.00
2013-4-4,49.0,45.7,44.0,45.0,40.8,36.0,99,83,62,30.00,29.54,5,2,0,0.00
2013-4-5,50.0,46.3,43.0,49.0,45.8,43.0,100,98,90,29.58,29.47,13,4,0,0.00
2013-4-6,48.0,46.6,44.0,47.0,42.8,38.0,99,86,71,29.77,29.40,22,14,0,0.00
2013-4-7,49.0,45.0,42.0,44.0,42.0,40.0,99,89,76,30.00,29.77,25,12,0,0.00
2013-4-8,49.0,45.3,42.0,45.0,42.3,39.0,99,89,76,30.06,29.97,28,14,0,0.00
2013-4-9,48.0,44.5,40.0,48.0,44.0,39.0,100,98,87,29.96,29.76,48,24,0,0.00
2013-4-10,47.0,43.0,37.0,46.0,36.9,30.0,100,80,55,30.24,29.84,21,10,0,0.00
2013-4-11,44.0,39.5,35.0,37.0,33.5,28.0,99,80,58,30.37,30.11,8,3,0,0.00
2013-4-12,43.0,38.4,33.0,39.0,35.9,31.0,99,91,67,30.06,29.56,18,9,0,0.00
2013-4-13,48.0,42.1,35.0,41.0,38.2,35.0,99,86,65,30.02,29.64,23,10,0,0.00
2013-4-14,49.0,44.7,42.0,44.0,40.5,36.0,93,85,61,30.07,30.00,22,15,0,0.00
2013-4-15,55.0,49.4,45.0,42.0,33.7,27.0,90,55,37,30.31,30.08,23,12,0,0.00
2013-4-16,54.0,47.0,43.0,41.0,35.1,24.0,85,64,31,30.41,30.32,14,8,0,0.00
2013-4-17,47.0,43.9,40.0,45.0,42.5,40.0,99,94,82,30.40,30.31,28,16,0,0.00
2013-4-18,49.0,47.7,47.0,48.0,46.1,43.0,99,93,82,30.32,30.04,22,16,0,0.00
2013-4-19,47.0,45.3,44.0,47.0,45.2,42.0,100,99,88,30.24,30.07,13,7,0,0.00
2013-4-20,48.0,45.7,44.0,43.0,37.5,27.0,93,74,44,30.31,30.25,15,9,0,0.00
2013-4-21,55.0,47.5,42.0,41.0,36.9,29.0,95,69,37,30.42,30.28,13,6,0,0.00
2013-4-22,56.0,44.2,35.0,43.0,35.3,26.0,99,73,32,30.58,30.44,11,5,0,0.00
2013-4-23,59.0,49.4,39.0,42.0,34.3,25.0,79,58,30,30.52,30.36,22,7,0,0.00
2013-4-24,53.0,48.0,43.0,49.0,45.4,41.0,100,90,69,30.38,30.18,21,8,0,0.00
2013-4-25,48.0,46.7,46.0,48.0,46.6,46.0,100,100,99,30.16,30.06,16,11,0,0.00
2013-4-26,51.0,47.3,46.0,51.0,47.1,46.0,100,99,97,30.05,29.80,33,21,0,0.00
2013-4-27,47.0,44.6,41.0,46.0,39.2,33.0,100,81,58,30.10,29.67,33,16,0,0.00
2013-4-28,51.0,40.9,37.0,44.0,38.2,35.0,99,90,77,30.07,29.79,25,12,0,0.00
2013-4-29,43.0,41.0,37.0,39.0,32.8,29.0,93,73,57,30.23,29.85,22,12,0,0.00
2013-4-30,43.0,41.2,39.0,34.0,29.2,26.0,81,62,53,30.44,30.25,17,9,0,0.00
2013-5-1,43.0,40.8,38.0,42.0,37.7,32.0,97,89,69,30.44,30.30,10,7,0,0.00
2013-5-2,52.0,47.6,44.0,48.0,45.8,43.0,100,93,83,30.55,30.31,16,7,0,0.00
2013-5-3,51.0,47.3,46.0,50.0,46.7,45.0,100,98,85,30.59,30.48,8,3,0,0.00
2013-5-4,65.0,52.7,48.0,52.0,49.7,48.0,99,89,61,30.49,30.27,23,10,0,0.00
2013-5-5,61.0,52.5,47.0,52.0,48.8,47.0,100,88,62,30.25,29.93,21,12,0,0.00
2013-5-6,63.0,52.5,45.0,52.0,47.9,45.0,100,86,60,30.03,29.93,26,12,0,0.00
2013-5-7,66.0,56.6,46.0,49.0,45.2,41.0,99,69,40,30.00,29.95,24,6,0,0.00
2013-5-8,64.0,54.0,47.0,51.0,47.1,45.0,96,77,56,30.16,29.99,14,4,0,0.00
2013-5-9,56.0,49.5,47.0,52.0,48.6,46.0,100,97,84,30.27,30.17,9,5,0,0.00
2013-5-10,55.0,49.2,46.0,53.0,48.0,-99.9,100,98,90,30.25,30.07,9,4,0,0.00
2013-5-11,52.0,50.4,49.0,52.0,49.3,-99.9,100,98,90,30.07,29.72,24,12,0,0.00
2013-5-12,58.0,51.7,49.0,56.0,51.5,49.0,100,99,94,29.74,29.65,21,14,0,0.00
2013-5-13,54.0,51.0,48.0,51.0,47.7,45.0,99,89,74,29.87,29.73,22,9,0,0.00
2013-5-14,50.0,48.0,47.0,48.0,44.0,40.0,99,85,71,30.02,29.89,31,12,0,0.00
2013-5-15,49.0,48.4,48.0,49.0,48.3,47.0,100,99,99,30.06,29.91,24,14,0,0.00
2013-5-16,59.0,48.8,49.0,56.0,34.4,-99.9,100,99,89,30.05,29.95,9,4,0,0.00
2013-5-17,55.0,51.6,50.0,55.0,47.0,-99.9,100,97,82,29.96,29.92,18,6,0,0.00
2013-5-18,53.0,50.8,49.0,51.0,49.8,47.0,100,96,84,30.38,29.95,16,7,0,0.00
2013-5-19,51.0,49.8,48.0,49.0,43.0,36.0,99,79,56,30.52,30.39,15,10,0,0.00
2013-5-20,50.0,48.1,46.0,46.0,42.9,41.0,97,82,74,30.42,30.05,10,6,0,0.00
2013-5-21,53.0,50.0,47.0,52.0,47.8,44.0,98,92,85,30.03,29.77,11,6,0,0.00
2013-5-22,60.0,53.0,47.0,52.0,48.5,45.0,100,85,65,29.94,29.74,25,9,0,0.00
2013-5-23,54.0,50.5,47.0,51.0,47.6,44.0,99,90,80,30.01,29.88,9,3,0,0.00
2013-5-24,54.0,50.6,48.0,53.0,50.2,48.0,100,98,94,30.06,30.00,14,10,0,0.00
2013-5-25,54.0,51.1,48.0,53.0,50.3,48.0,99,97,84,30.05,30.00,6,2,0,0.00
2013-5-26,55.0,51.5,50.0,55.0,51.4,50.0,100,99,94,30.00,29.93,17,7,0,0.00
2013-5-27,61.0,55.5,53.0,57.0,53.7,52.0,99,93,79,29.91,29.60,26,16,0,0.00
2013-5-28,56.0,53.5,51.0,56.0,53.2,51.0,100,99,94,29.73,29.61,26,8,0,0.00
2013-5-29,54.0,51.8,50.0,51.0,50.2,48.0,99,93,79,29.87,29.73,11,7,0,0.00
2013-5-30,54.0,51.0,49.0,53.0,50.2,49.0,99,96,88,30.16,29.88,11,5,0,0.00
2013-5-31,55.0,51.8,50.0,51.0,49.8,46.0,100,93,71,30.33,30.18,18,10,0,0.00
2013-6-1,55.0,52.0,49.0,51.0,43.4,-99.9,100,88,75,30.29,30.22,17,8,0,0.00
2013-6-2,54.0,51.3,49.0,51.0,49.3,48.0,99,92,81,30.26,30.15,24,12,0,0.00
2013-6-3,60.0,52.9,47.0,51.0,48.7,45.0,100,87,58,30.17,30.14,11,7,0,0.00
2013-6-4,52.0,50.6,49.0,52.0,50.4,49.0,100,99,98,30.15,30.09,15,9,0,0.00
2013-6-5,55.0,53.1,52.0,48.0,47.2,46.0,84,80,74,30.25,30.19,7,6,0,0.00
2013-6-6,54.0,50.6,49.0,52.0,50.0,48.0,99,97,85,30.17,29.84,29,8,0,0.00
2013-6-7,53.0,50.9,50.0,51.0,50.4,49.0,100,98,89,30.05,29.84,22,11,0,0.00
2013-6-8,52.0,50.5,49.0,52.0,50.4,49.0,100,99,99,30.11,30.05,14,10,0,0.00
2013-6-9,56.0,51.4,48.0,52.0,49.9,48.0,100,94,85,30.15,30.11,15,6,0,0.00
2013-6-10,54.0,50.6,47.0,54.0,50.4,47.0,100,99,99,30.15,29.96,20,10,0,0.00
2013-6-11,51.0,50.4,50.0,51.0,50.4,50.0,100,100,99,29.95,29.91,10,7,0,0.00
2013-8-12,58.0,57.2,54.0,58.0,57.1,54.0,99,99,99,30.09,30.08,13,6,0,0.00
2013-8-13,67.0,57.6,54.0,62.0,55.0,-99.9,100,96,81,30.09,29.95,14,3,0,0.00
2013-8-14,65.0,59.1,55.0,64.0,57.3,-99.9,100,97,92,29.93,29.81,17,3,0,0.00
2013-8-15,66.0,55.5,57.0,63.0,45.9,-99.9,100,91,86,29.93,29.85,13,3,0,0.00
2013-8-16,72.0,58.5,56.0,66.0,54.7,-99.9,100,96,76,29.96,29.85,26,11,0,0.00
2013-8-17,69.0,58.6,57.0,65.0,56.8,-99.9,100,97,88,29.97,29.92,25,14,0,0.00
2013-8-18,61.0,58.6,56.0,61.0,58.4,56.0,100,99,96,30.01,29.93,22,13,0,0.00
2013-8-19,61.0,54.8,56.0,59.0,48.5,-99.9,100,96,89,30.11,29.91,20,11,0,0.00
2013-8-20,64.0,55.9,53.0,58.0,52.6,-99.9,100,94,70,30.20,30.10,10,5,0,0.00
2013-8-21,58.0,55.1,53.0,58.0,55.0,53.0,100,100,99,30.19,30.01,17,4,0,0.00
2013-8-22,64.0,60.9,57.0,64.0,60.8,57.0,100,100,99,29.98,29.86,10,5,0,0.00
2013-8-23,66.0,61.2,58.0,65.0,61.1,58.0,100,99,95,29.84,29.69,13,5,0,0.00
2013-8-24,64.0,59.7,53.0,62.0,53.3,-99.9,99,83,68,29.89,29.71,18,10,0,0.00
2013-8-25,64.0,59.0,56.0,60.0,56.8,53.0,99,92,78,29.90,29.85,33,11,0,0.00
2013-8-26,66.0,58.7,54.0,58.0,55.4,53.0,100,89,64,29.85,29.73,16,5,0,0.00
2013-8-27,62.0,59.5,56.0,61.0,58.4,56.0,100,96,90,29.88,29.78,16,9,0,0.00
2013-8-28,67.0,62.0,60.0,65.0,61.6,60.0,100,98,92,29.83,29.81,33,16,0,0.00
2013-8-29,65.0,61.3,60.0,65.0,61.3,60.0,100,99,99,29.81,29.68,25,12,0,0.00
2013-8-30,66.0,60.3,57.0,65.0,59.4,57.0,100,96,85,30.12,29.83,15,5,0,0.00
2013-8-31,67.0,59.1,58.0,64.0,57.3,-99.9,100,97,91,30.12,29.88,10,5,0,0.00
2013-9-1,65.0,60.2,56.0,62.0,59.2,56.0,100,97,88,29.87,29.82,18,8,0,0.00
2013-9-2,66.0,61.9,59.0,63.0,60.7,59.0,100,95,85,29.94,29.85,14,6,0,0.00
2013-9-3,66.0,61.7,58.0,64.0,60.7,58.0,100,96,82,30.04,29.94,11,3,0,0.00
2013-9-4,69.0,61.4,56.0,64.0,60.1,56.0,100,96,81,30.12,30.05,8,3,0,0.00
2013-9-5,67.0,59.5,55.0,62.0,59.0,55.0,100,98,79,30.14,30.09,28,10,0,0.00
2013-9-6,70.0,62.8,59.0,63.0,60.3,59.0,100,92,74,30.07,30.02,26,18,0,0.00
2013-9-7,63.0,59.0,57.0,62.0,57.3,-99.9,100,97,91,30.11,30.06,14,6,0,0.00
2013-9-8,60.0,58.3,57.0,60.0,58.3,57.0,100,100,99,30.16,30.12,13,6,0,0.00
2013-9-9,62.0,59.0,57.0,60.0,58.3,57.0,100,97,91,30.14,30.09,15,6,0,0.00
2013-9-10,62.0,57.2,54.0,60.0,56.8,54.0,100,98,90,30.09,29.99,8,3,0,0.00
2013-9-11,72.0,60.2,52.0,62.0,58.0,52.0,100,93,66,30.00,29.91,16,3,0,0.00
2013-9-12,63.0,57.7,54.0,62.0,57.6,54.0,100,99,99,30.01,29.96,15,6,0,0.00
2013-9-13,56.0,54.4,53.0,56.0,54.4,53.0,100,100,99,30.00,29.90,6,3,0,0.00
2013-9-14,64.0,55.3,53.0,64.0,52.4,-99.9,100,97,99,29.89,29.79,16,6,0,0.00
2013-9-15,58.0,56.2,54.0,58.0,56.2,54.0,100,100,100,29.78,29.71,13,9,0,0.00
2013-9-16,61.0,58.9,57.0,60.0,58.2,56.0,100,97,88,29.85,29.74,16,9,0,0.00
2013-9-17,58.0,56.2,54.0,58.0,55.8,54.0,100,98,92,29.89,29.85,13,6,0,0.00
2013-9-18,57.0,54.7,54.0,56.0,54.5,53.0,100,99,95,29.91,29.84,9,5,0,0.00
2013-9-19,62.0,55.6,52.0,58.0,55.2,52.0,100,98,84,29.81,29.39,14,4,0,0.00
2013-9-20,61.0,57.9,54.0,58.0,55.9,54.0,100,93,77,29.60,29.38,26,8,0,0.00
2013-9-21,56.0,53.0,52.0,55.0,50.4,-99.9,100,94,80,29.60,29.38,8,2,0,0.00
2013-9-22,55.0,53.2,51.0,54.0,52.1,49.0,100,96,88,29.34,29.19,10,4,0,0.00
2013-9-23,53.0,49.3,47.0,53.0,49.2,47.0,99,99,96,29.77,29.35,9,2,0,0.00
2013-9-24,53.0,48.0,44.0,52.0,47.4,44.0,100,98,89,30.06,29.78,9,3,0,0.00
2013-9-25,54.0,49.2,45.0,52.0,48.5,45.0,99,97,89,30.17,30.09,17,4,0,0.00
2013-9-26,51.0,49.0,45.0,51.0,48.9,45.0,100,99,97,30.15,29.88,28,10,0,0.00
2013-9-27,54.0,51.6,49.0,53.0,51.0,49.0,99,97,89,29.89,29.38,29,12,0,0.00
2013-9-28,50.0,48.5,47.0,50.0,45.9,-99.9,99,94,91,29.33,28.88,29,18,0,0.00
2013-9-29,52.0,47.8,45.0,51.0,47.0,45.0,99,97,92,29.10,28.85,13,8,0,0.00
2013-9-30,51.0,47.2,45.0,51.0,47.0,44.0,100,99,98,29.47,29.07,18,6,0,0.00
2013-10-8,54.0,53.4,53.0,50.0,48.7,47.0,89,83,78,30.17,30.14,17,12,0,0.00
2013-10-9,52.0,49.3,48.0,50.0,48.3,46.0,100,96,88,30.17,29.95,14,3,0,0.00
2013-10-10,54.0,48.8,42.0,48.0,45.6,42.0,100,89,72,30.13,29.99,18,7,0,0.00
2013-10-11,51.0,46.8,44.0,49.0,45.2,43.0,99,94,84,30.17,30.11,11,6,0,0.00
2013-10-12,53.0,48.5,47.0,50.0,45.6,-99.9,99,92,84,30.26,30.15,18,8,0,0.00
2013-10-13,54.0,50.8,48.0,52.0,50.0,48.0,99,97,88,30.42,30.27,8,4,0,0.00
2013-10-14,55.0,52.0,50.0,53.0,51.5,50.0,99,98,91,30.47,30.42,6,3,0,0.00
2013-10-15,56.0,52.5,50.0,53.0,52.0,50.0,100,98,90,30.43,30.29,18,7,0,0.00
2013-10-16,54.0,48.9,46.0,52.0,48.5,45.0,100,98,92,30.29,30.23,14,4,0,0.00
2013-10-17,52.0,46.9,45.0,51.0,46.8,45.0,100,100,98,30.33,30.25,9,3,0,0.00
2013-10-18,47.0,46.1,45.0,47.0,46.0,45.0,100,99,99,30.32,30.25,5,2,0,0.00
2013-10-19,56.0,47.9,46.0,52.0,45.8,-99.9,100,96,85,30.28,30.24,10,3,0,0.00
2013-10-20,59.0,52.4,49.0,58.0,52.3,49.0,100,100,97,30.27,30.20,6,3,0,0.00
2013-10-21,56.0,52.4,50.0,56.0,52.4,50.0,100,100,99,30.21,30.17,6,2,0,0.00
2013-10-22,54.0,51.9,50.0,54.0,51.9,50.0,100,100,100,30.21,30.07,7,3,0,0.00
2013-10-23,52.0,48.8,47.0,52.0,48.8,47.0,100,100,100,30.06,30.01,8,3,0,0.00
2013-10-24,51.0,49.2,47.0,51.0,49.1,47.0,100,99,99,30.17,30.04,13,2,0,0.00
2013-10-25,50.0,47.1,45.0,49.0,46.8,44.0,100,99,91,30.34,30.19,10,2,0,0.00
2013-10-26,51.0,48.4,48.0,51.0,46.9,-99.9,100,98,99,30.38,30.30,22,6,0,0.00
2013-10-27,60.0,51.7,45.0,49.0,46.9,39.0,100,85,55,30.40,30.32,15,6,0,0.00
2013-10-28,56.0,52.1,48.0,49.0,40.2,-99.9,91,68,52,30.32,29.98,14,7,0,0.00
2013-10-29,55.0,48.7,45.0,49.0,41.8,39.0,92,77,58,29.98,29.94,13,7,0,0.00
2013-10-30,52.0,49.5,45.0,51.0,47.3,43.0,100,92,71,29.96,29.82,25,18,0,0.00
2013-10-31,53.0,52.1,51.0,53.0,51.9,50.0,100,99,98,30.13,29.91,14,9,0,0.00
2013-11-1,51.0,46.8,43.0,50.0,46.0,42.0,100,96,86,30.22,30.00,11,5,0,0.00
2013-11-2,49.0,45.6,44.0,44.0,39.4,-99.9,92,82,74,30.00,29.86,26,19,0,0.00
2013-11-3,46.0,41.7,38.0,41.0,39.8,37.0,99,93,76,30.10,30.01,11,4,0,0.00
2013-11-4,49.0,44.8,38.0,42.0,38.0,29.0,99,78,47,30.09,29.89,13,8,0,0.00
2013-11-5,48.0,45.6,44.0,45.0,43.0,40.0,97,90,84,30.14,29.96,22,10,0,0.00
2013-11-6,47.0,45.6,44.0,46.0,44.3,42.0,99,94,91,30.24,29.86,29,12,0,0.00
2013-11-7,48.0,45.5,43.0,46.0,44.2,41.0,99,94,87,29.96,29.59,14,7,0,0.00
2013-11-8,50.0,45.2,42.0,48.0,44.6,42.0,99,97,89,30.05,29.96,22,6,0,0.00
2013-11-9,49.0,45.2,44.0,46.0,42.1,-99.9,99,92,80,30.19,30.04,9,4,0,0.00
2013-11-10,52.0,44.7,41.0,45.0,42.1,40.0,99,91,72,30.22,30.09,22,7,0,0.00
2013-11-11,56.0,49.8,40.0,52.0,46.6,39.0,97,88,80,30.07,29.80,23,11,0,0.00
2013-11-12,55.0,53.3,51.0,55.0,52.5,51.0,99,96,84,30.25,29.78,28,16,0,0.00
2013-11-13,53.0,50.0,47.0,52.0,49.7,47.0,100,99,94,30.42,30.27,14,5,0,0.00
2013-11-14,51.0,47.5,44.0,48.0,44.1,40.0,100,88,65,30.33,30.11,10,4,0,0.00
2013-11-15,51.0,46.8,43.0,49.0,44.0,37.0,100,90,69,30.08,29.44,33,13,0,0.00
2013-11-16,46.0,43.6,40.0,40.0,34.0,-99.9,99,72,61,29.67,29.50,17,6,0,0.00
2013-11-17,46.0,42.5,40.0,44.0,41.1,39.0,99,94,82,29.81,29.67,16,4,0,0.00
2013-11-18,41.0,39.7,38.0,41.0,39.3,38.0,99,98,93,29.83,29.65,15,4,0,0.00
2013-11-19,40.0,36.9,34.0,38.0,28.8,24.0,91,73,55,30.17,29.70,9,4,0,0.00
2013-11-20,45.0,38.6,32.0,40.0,34.1,29.0,93,83,69,30.48,30.19,14,5,0,0.00
2013-11-21,44.0,42.1,41.0,41.0,38.7,37.0,98,87,81,30.68,30.50,21,8,0,0.00
2013-11-22,47.0,41.7,35.0,39.0,37.5,35.0,97,85,73,30.67,30.39,17,6,0,0.00
2013-11-23,50.0,46.1,44.0,43.0,37.8,-99.9,84,76,67,30.39,30.20,23,13,0,0.00
2013-11-24,50.0,47.5,45.0,45.0,43.6,42.0,93,85,79,30.20,30.13,13,8,0,0.00
2013-11-25,49.0,45.8,41.0,44.0,42.5,40.0,99,87,77,30.18,30.10,7,3,0,0.00
2013-11-26,49.0,44.5,39.0,43.0,40.5,38.0,99,86,72,30.16,29.94,15,5,0,0.00
2013-11-27,52.0,48.5,46.0,51.0,43.6,41.0,99,84,71,29.99,29.86,18,7,0,0.00
2013-11-28,56.0,47.9,42.0,49.0,45.7,42.0,99,92,74,30.13,29.86,20,10,0,0.00
2013-11-29,48.0,44.8,43.0,44.0,42.1,40.0,99,89,78,30.10,29.89,34,19,0,0.00
2013-11-30,51.0,45.5,42.0,50.0,43.9,-99.9,99,97,92,30.09,29.71,24,12,0,0.00
2013-12-1,50.0,40.1,35.0,50.0,38.2,34.0,99,92,78,29.77,29.65,10,4,0,0.00
2013-12-2,38.0,35.8,32.0,36.0,22.7,13.0,99,61,42,30.40,29.79,22,11,0,0.00
2013-12-3,39.0,36.2,33.0,28.0,24.0,19.0,82,61,48,30.53,30.41,23,12,0,0.00
2013-12-4,36.0,33.1,31.0,29.0,25.3,22.0,83,73,63,30.41,30.34,11,6,0,0.00
2013-12-5,36.0,31.4,28.0,28.0,23.8,8.0,92,75,38,30.46,30.30,15,5,0,0.00
2013-12-6,29.0,26.7,23.0,16.0,9.1,4.0,57,47,33,30.62,30.47,30,18,0,0.00
2013-12-7,32.0,26.7,20.0,23.0,13.2,-99.9,76,58,46,30.50,30.38,28,12,0,0.00
2013-12-8,35.0,33.2,31.0,30.0,26.6,23.0,83,76,64,30.53,30.42,8,4,0,0.00
2013-12-9,38.0,36.0,33.0,38.0,35.1,31.0,99,96,91,30.54,30.44,11,7,0,0.00
2013-12-10,43.0,39.0,36.0,40.0,37.8,36.0,99,95,81,30.45,30.28,14,7,0,0.00
2013-12-11,58.0,44.1,42.0,47.0,40.7,39.0,98,87,67,30.26,29.86,22,16,0,0.00
2013-12-12,49.0,42.7,37.0,44.0,41.0,37.0,99,93,77,29.92,29.72,24,9,0,0.00
2013-12-13,45.0,41.6,38.0,44.0,41.0,37.0,100,97,90,30.12,29.96,18,8,0,0.00
2013-12-14,51.0,44.7,39.0,50.0,42.6,-99.9,99,97,79,30.01,29.62,50,20,0,0.00
2013-12-15,46.0,43.3,39.0,42.0,39.8,38.0,99,88,74,30.23,29.98,25,10,0,0.00
2013-12-16,50.0,43.7,38.0,50.0,42.3,38.0,100,95,84,30.29,29.58,37,18,0,0.00
2013-12-17,51.0,41.1,34.0,50.0,38.6,31.0,99,91,72,30.09,29.55,28,12,0,0.00
2013-12-18,39.0,36.1,30.0,35.0,28.6,26.0,95,74,65,30.41,30.11,21,11,0,0.00
2013-12-19,38.0,33.5,30.0,36.0,30.7,24.0,96,89,71,30.38,29.76,15,9,0,0.00
2013-12-20,45.0,39.3,37.0,44.0,38.0,36.0,99,95,89,29.88,29.44,16,7,0,0.00
2013-12-21,42.0,38.0,36.0,41.0,36.1,-99.9,99,96,90,30.01,29.91,14,6,0,0.00
2013-12-22,49.0,45.9,40.0,49.0,45.6,39.0,99,98,97,29.94,29.58,22,12,0,0.00
2013-12-23,46.0,43.2,40.0,46.0,40.4,35.0,99,90,72,30.37,29.79,26,11,0,0.00
2013-12-24,44.0,41.0,40.0,39.0,37.3,35.0,93,86,75,30.44,30.15,16,6,0,0.00
2013-12-25,49.0,46.4,43.0,45.0,42.2,39.0,92,85,78,30.10,29.85,11,6,0,0.00
2013-12-26,49.0,47.8,46.0,49.0,47.3,45.0,99,97,90,29.84,29.72,22,11,0,0.00
2013-12-27,47.0,43.2,37.0,46.0,42.3,37.0,99,96,88,30.42,29.71,23,11,0,0.00
2013-12-28,43.0,39.5,36.0,42.0,37.9,-99.9,99,97,96,30.51,30.38,20,10,0,0.00
2013-12-29,44.0,43.2,42.0,43.0,42.5,42.0,99,98,95,30.35,30.22,30,20,0,0.00
2013-12-30,46.0,44.0,42.0,45.0,43.8,42.0,99,98,95,30.24,30.09,32,16,0,0.00
2013-12-31,48.0,46.0,44.0,47.0,45.5,44.0,99,98,96,30.40,30.16,18,6,0,0.00
2014-1-1,48.0,44.7,43.0,47.0,44.6,43.0,100,99,97,30.42,30.29,6,2,0,0.00
2014-1-2,49.0,44.8,43.0,46.0,44.0,40.0,100,97,82,30.28,29.86,15,4,0,0.00